Language: 


Des rapports , des résumés tant et plus, au choix de chacun....


Données statistiques de la station
Quotidien Rapport Mai 8, 2017 Unités:  Métrique    Anglais   les deux
« Précédent Jour
Suivant Jour »
Quotidien Hebdomadaire Mensuel Annuel Actuel
  Haut: Bas: Moyen:
Température: 13.8 °C 7.4 °C 9.9 °C
Pt de rosée: 13.0 °C 6.0 °C 8.5 °C
Humidité: 98 % 77 % 90 %
Vitesse du vent: 27.7 km/h 0.0 km/h 9.1 km/h
Rafales: 32.0 km/h - -
Vent:- - West
Pression: 1022.9 hPa 1019.9 hPa -
Précipitation: 0.5 mm    
Historical Graphs
 
 
Données statistiques pour Mai 8, 2017
Heure Température Point de rosée Pression Vent Vitesse du vent Refales Humidité Pluie (taux horaire)
00:00 10.0 °C 7.0 °C 1020.9 hPa WNW 9.7 km/h 12.2 km/h 82 % 0.0 mm
00:05 10.0 °C 7.0 °C 1020.9 hPa NW 10.1 km/h 12.6 km/h 83 % 0.0 mm
00:07 10.0 °C 7.0 °C 1020.9 hPa NW 8.7 km/h 12.6 km/h 83 % 0.0 mm
00:12 9.9 °C 8.0 °C 1020.9 hPa West 5.0 km/h 12.6 km/h 84 % 0.0 mm
00:17 9.9 °C 7.0 °C 1020.9 hPa North 3.5 km/h 11.9 km/h 83 % 0.0 mm
00:29 9.9 °C 7.0 °C 1020.9 hPa NW 4.3 km/h 10.1 km/h 83 % 0.0 mm
00:34 9.9 °C 7.0 °C 1020.9 hPa North 5.5 km/h 13.0 km/h 83 % 0.0 mm
00:39 9.9 °C 7.0 °C 1020.9 hPa NNW 10.1 km/h 13.0 km/h 82 % 0.0 mm
00:44 9.9 °C 7.0 °C 1020.9 hPa Calm   11.6 km/h 82 % 0.0 mm
00:49 9.9 °C 7.0 °C 1020.9 hPa Calm   11.6 km/h 82 % 0.0 mm
00:54 9.9 °C 7.0 °C 1020.9 hPa NW 4.0 km/h 9.0 km/h 82 % 0.0 mm
00:59 9.9 °C 7.0 °C 1020.9 hPa WNW 4.7 km/h 12.2 km/h 82 % 0.0 mm
01:05 9.9 °C 7.0 °C 1020.9 hPa NNW 14.0 km/h 14.0 km/h 83 % 0.0 mm
01:10 9.8 °C 7.0 °C 1020.9 hPa NNW 6.1 km/h 14.0 km/h 84 % 0.0 mm
01:15 9.7 °C 8.0 °C 1020.9 hPa North 8.7 km/h 14.0 km/h 85 % 0.0 mm
01:20 9.7 °C 8.0 °C 1020.9 hPa North 8.7 km/h 12.2 km/h 86 % 0.0 mm
01:25 9.6 °C 8.0 °C 1020.9 hPa WNW 8.7 km/h 12.2 km/h 86 % 0.0 mm
01:30 9.6 °C 8.0 °C 1020.9 hPa NNW 6.4 km/h 12.2 km/h 86 % 0.0 mm
01:35 9.6 °C 8.0 °C 1020.9 hPa WNW 4.3 km/h 10.5 km/h 87 % 0.0 mm
01:40 9.6 °C 8.0 °C 1020.9 hPa NW 6.1 km/h 10.5 km/h 87 % 0.0 mm
01:45 9.5 °C 8.0 °C 1020.9 hPa WNW 6.1 km/h 8.7 km/h 88 % 0.0 mm
01:50 9.5 °C 8.0 °C 1020.9 hPa NNW 5.8 km/h 22.7 km/h 89 % 0.0 mm
01:55 9.3 °C 8.0 °C 1020.9 hPa NNW 9.3 km/h 22.7 km/h 91 % 0.0 mm
02:00 9.3 °C 8.0 °C 1020.9 hPa NNW 5.0 km/h 14.0 km/h 91 % 0.0 mm
02:05 9.1 °C 8.0 °C 1020.9 hPa NE 5.8 km/h 17.7 km/h 92 % 0.0 mm
02:10 8.9 °C 8.0 °C 1020.9 hPa NE 12.2 km/h 17.7 km/h 93 % 0.0 mm
02:15 8.9 °C 8.0 °C 1020.9 hPa NNW 5.8 km/h 16.9 km/h 93 % 0.0 mm
02:20 8.8 °C 8.0 °C 1020.9 hPa NNW 1.8 km/h 14.0 km/h 94 % 0.0 mm
02:25 8.7 °C 8.0 °C 1020.9 hPa North 6.1 km/h 13.0 km/h 94 % 0.0 mm
02:30 8.7 °C 8.0 °C 1020.9 hPa NNW 9.0 km/h 13.0 km/h 95 % 0.0 mm
02:35 8.7 °C 8.0 °C 1020.9 hPa NNW 3.5 km/h 10.5 km/h 95 % 0.0 mm
02:40 8.6 °C 8.0 °C 1020.9 hPa North 5.5 km/h 10.1 km/h 95 % 0.0 mm
02:45 8.6 °C 8.0 °C 1020.9 hPa North 5.5 km/h 11.6 km/h 95 % 0.0 mm
02:50 8.5 °C 8.0 °C 1020.9 hPa NNW 10.5 km/h 11.6 km/h 95 % 0.0 mm
02:55 8.5 °C 9.0 °C 1020.9 hPa WNW 5.5 km/h 10.8 km/h 96 % 0.0 mm
03:00 8.5 °C 9.0 °C 1020.9 hPa NNW 7.9 km/h 11.6 km/h 96 % 0.0 mm
03:05 8.5 °C 9.0 °C 1020.9 hPa NNW 5.5 km/h 14.0 km/h 96 % 0.0 mm
03:10 8.5 °C 9.0 °C 1020.9 hPa NNE 9.7 km/h 14.0 km/h 96 % 0.0 mm
03:15 8.5 °C 9.0 °C 1020.9 hPa North 4.0 km/h 10.1 km/h 96 % 0.0 mm
03:20 8.5 °C 9.0 °C 1020.9 hPa Calm   10.1 km/h 96 % 0.0 mm
03:25 8.5 °C 9.0 °C 1020.9 hPa NNW 4.3 km/h 8.7 km/h 96 % 0.0 mm
03:31 8.5 °C 9.0 °C 1020.9 hPa NNW 6.9 km/h 8.7 km/h 96 % 0.0 mm
03:36 8.5 °C 9.0 °C 1020.9 hPa North 3.2 km/h 7.9 km/h 96 % 0.0 mm
03:41 8.5 °C 9.0 °C 1020.9 hPa NNW 6.9 km/h 9.7 km/h 97 % 0.0 mm
03:46 8.4 °C 8.0 °C 1020.9 hPa NNW 7.9 km/h 9.7 km/h 96 % 0.0 mm
03:51 8.4 °C 8.0 °C 1020.9 hPa Calm   8.7 km/h 96 % 0.0 mm
03:56 8.5 °C 9.0 °C 1020.9 hPa NNW 5.0 km/h 7.2 km/h 96 % 0.0 mm
04:01 8.4 °C 8.0 °C 1020.9 hPa NNW 5.5 km/h 7.2 km/h 96 % 0.0 mm
04:06 8.4 °C 8.0 °C 1020.9 hPa Calm   9.7 km/h 96 % 0.0 mm
04:11 8.4 °C 8.0 °C 1020.9 hPa NW 4.3 km/h 9.7 km/h 95 % 0.0 mm
04:16 8.4 °C 8.0 °C 1020.9 hPa NNW 4.0 km/h 9.7 km/h 95 % 0.0 mm
04:21 8.4 °C 8.0 °C 1020.9 hPa North 6.4 km/h 9.7 km/h 95 % 0.0 mm
04:26 8.4 °C 8.0 °C 1020.9 hPa NNW 9.0 km/h 9.0 km/h 95 % 0.0 mm
04:31 8.4 °C 8.0 °C 1020.9 hPa WNW 6.9 km/h 10.5 km/h 95 % 0.0 mm
04:36 8.4 °C 8.0 °C 1020.9 hPa WNW 5.0 km/h 10.5 km/h 95 % 0.0 mm
04:41 8.4 °C 8.0 °C 1020.9 hPa WNW 5.0 km/h 9.7 km/h 94 % 0.0 mm
04:46 8.4 °C 8.0 °C 1020.9 hPa WNW 9.0 km/h 9.7 km/h 94 % 0.0 mm
04:51 8.4 °C 8.0 °C 1020.9 hPa NW 6.9 km/h 12.6 km/h 93 % 0.0 mm
04:56 8.4 °C 8.0 °C 1020.9 hPa WNW 4.3 km/h 12.6 km/h 93 % 0.0 mm
05:01 8.4 °C 7.0 °C 1020.9 hPa NNW 5.0 km/h 9.7 km/h 92 % 0.0 mm
05:06 8.4 °C 7.0 °C 1020.9 hPa Calm   10.1 km/h 92 % 0.0 mm
05:11 8.4 °C 7.0 °C 1020.9 hPa Calm   10.1 km/h 91 % 0.0 mm
05:16 8.4 °C 7.0 °C 1020.9 hPa Calm   7.2 km/h 91 % 0.0 mm
05:21 8.4 °C 7.0 °C 1020.9 hPa Calm   7.2 km/h 91 % 0.0 mm
05:26 8.4 °C 7.0 °C 1020.9 hPa West 2.1 km/h 6.4 km/h 91 % 0.0 mm
05:31 8.3 °C 7.0 °C 1020.9 hPa WNW 3.2 km/h 6.1 km/h 89 % 0.0 mm
05:37 8.3 °C 7.0 °C 1020.9 hPa WNW 9.7 km/h 10.1 km/h 88 % 0.0 mm
05:42 8.4 °C 7.0 °C 1020.9 hPa West 3.5 km/h 10.1 km/h 88 % 0.0 mm
05:47 8.3 °C 7.0 °C 1020.9 hPa NW 4.7 km/h 7.9 km/h 88 % 0.0 mm
05:52 8.4 °C 7.0 °C 1020.9 hPa NW 4.3 km/h 9.3 km/h 87 % 0.0 mm
05:55 8.4 °C 7.0 °C 1020.9 hPa NNW 5.0 km/h 9.3 km/h 87 % 0.0 mm
06:00 8.4 °C 7.0 °C 1020.9 hPa NNE 10.1 km/h 10.1 km/h 87 % 0.0 mm
06:05 8.4 °C 6.0 °C 1020.9 hPa West 1.8 km/h 12.6 km/h 86 % 0.0 mm
06:10 8.4 °C 6.0 °C 1020.9 hPa NNW 3.2 km/h 12.6 km/h 86 % 0.0 mm
06:15 8.4 °C 6.0 °C 1020.9 hPa NNW 6.9 km/h 12.6 km/h 86 % 0.0 mm
06:20 8.4 °C 6.0 °C 1020.9 hPa NNW 4.3 km/h 11.6 km/h 85 % 0.0 mm
06:25 8.4 °C 6.0 °C 1019.9 hPa North 5.0 km/h 11.9 km/h 85 % 0.0 mm
06:27 8.4 °C 6.0 °C 1019.9 hPa WNW 6.9 km/h 11.9 km/h 85 % 0.0 mm
06:32 8.4 °C 6.0 °C 1019.9 hPa Calm   9.3 km/h 85 % 0.0 mm
06:37 8.4 °C 6.0 °C 1019.9 hPa NNW 6.9 km/h 11.1 km/h 84 % 0.0 mm
06:42 8.4 °C 6.0 °C 1019.9 hPa NNW 6.1 km/h 11.1 km/h 85 % 0.0 mm
06:47 8.4 °C 6.0 °C 1019.9 hPa WNW 2.1 km/h 9.0 km/h 84 % 0.0 mm
06:52 8.4 °C 6.0 °C 1019.9 hPa NW 9.7 km/h 10.5 km/h 84 % 0.0 mm
06:57 8.5 °C 6.0 °C 1019.9 hPa NNW 4.0 km/h 10.5 km/h 84 % 0.0 mm
07:02 8.5 °C 6.0 °C 1019.9 hPa North 5.8 km/h 9.7 km/h 84 % 0.0 mm
07:07 8.5 °C 6.0 °C 1020.9 hPa North 4.7 km/h 13.7 km/h 84 % 0.0 mm
07:13 8.5 °C 6.0 °C 1020.9 hPa Calm   13.7 km/h 84 % 0.0 mm
07:18 8.5 °C 6.0 °C 1020.9 hPa NNW 4.3 km/h 10.1 km/h 84 % 0.0 mm
07:23 8.6 °C 6.0 °C 1020.9 hPa North 9.3 km/h 10.1 km/h 83 % 0.0 mm
07:28 8.6 °C 6.0 °C 1020.9 hPa NNW 5.0 km/h 9.7 km/h 83 % 0.0 mm
07:33 8.6 °C 6.0 °C 1020.9 hPa North 14.0 km/h 14.0 km/h 83 % 0.0 mm
07:38 8.7 °C 6.0 °C 1019.9 hPa West 4.7 km/h 14.0 km/h 82 % 0.0 mm
07:43 8.7 °C 6.0 °C 1019.9 hPa NNW 1.4 km/h 11.6 km/h 81 % 0.0 mm
07:48 8.7 °C 6.0 °C 1019.9 hPa NNW 3.5 km/h 11.9 km/h 81 % 0.0 mm
07:53 8.8 °C 6.0 °C 1019.9 hPa WNW 5.0 km/h 12.6 km/h 81 % 0.0 mm
07:58 8.8 °C 6.0 °C 1019.9 hPa North 5.8 km/h 12.6 km/h 82 % 0.0 mm
08:03 8.8 °C 6.0 °C 1019.9 hPa Calm   10.5 km/h 82 % 0.0 mm
08:08 8.8 °C 6.0 °C 1020.9 hPa WNW 5.5 km/h 10.5 km/h 83 % 0.0 mm
08:13 8.9 °C 6.0 °C 1020.9 hPa WNW 4.3 km/h 10.1 km/h 83 % 0.0 mm
08:18 8.9 °C 6.0 °C 1020.9 hPa North 5.8 km/h 11.6 km/h 83 % 0.0 mm
08:23 8.9 °C 7.0 °C 1019.9 hPa West 11.6 km/h 14.0 km/h 84 % 0.0 mm
08:28 8.9 °C 7.0 °C 1019.9 hPa NNW 6.4 km/h 14.0 km/h 85 % 0.0 mm
08:33 8.9 °C 7.0 °C 1019.9 hPa NNE 6.9 km/h 11.6 km/h 86 % 0.0 mm
08:38 8.9 °C 7.0 °C 1020.9 hPa NW 4.3 km/h 10.1 km/h 87 % 0.0 mm
08:43 8.9 °C 7.0 °C 1020.9 hPa NW 9.0 km/h 12.6 km/h 88 % 0.0 mm
08:48 9.0 °C 8.0 °C 1020.9 hPa NW 4.3 km/h 12.6 km/h 89 % 0.0 mm
08:53 8.9 °C 8.0 °C 1020.9 hPa WNW 7.6 km/h 11.9 km/h 90 % 0.0 mm
08:59 9.0 °C 8.0 °C 1020.9 hPa North 5.8 km/h 9.7 km/h 90 % 0.0 mm
09:04 9.0 °C 8.0 °C 1020.9 hPa NNW 5.8 km/h 10.1 km/h 91 % 0.0 mm
09:09 9.1 °C 8.0 °C 1020.9 hPa North 6.9 km/h 11.9 km/h 92 % 0.0 mm
09:14 9.2 °C 8.0 °C 1020.9 hPa North 3.2 km/h 11.9 km/h 92 % 0.0 mm
09:19 9.3 °C 9.0 °C 1020.9 hPa WNW 5.5 km/h 10.5 km/h 93 % 0.0 mm
09:24 9.3 °C 9.0 °C 1020.9 hPa NNW 1.8 km/h 10.5 km/h 93 % 0.0 mm
09:29 9.4 °C 9.0 °C 1020.9 hPa North 4.7 km/h 12.2 km/h 93 % 0.0 mm
09:34 9.4 °C 9.0 °C 1020.9 hPa North 6.4 km/h 14.0 km/h 93 % 0.0 mm
09:39 9.4 °C 9.0 °C 1020.9 hPa NNE 6.1 km/h 14.0 km/h 93 % 0.0 mm
09:40 9.4 °C 9.0 °C 1020.9 hPa North 10.5 km/h 13.7 km/h 94 % 0.0 mm
09:45 9.3 °C 9.0 °C 1020.9 hPa NW 10.5 km/h 13.7 km/h 94 % 0.0 mm
09:50 9.3 °C 9.0 °C 1020.9 hPa NNW 8.7 km/h 13.7 km/h 95 % 0.0 mm
09:55 9.5 °C 9.0 °C 1020.9 hPa NE 4.0 km/h 14.0 km/h 96 % 0.0 mm
10:00 9.7 °C 9.0 °C 1020.9 hPa North 4.3 km/h 14.0 km/h 96 % 0.0 mm
10:02 9.7 °C 9.0 °C 1020.9 hPa NNW 4.7 km/h 14.0 km/h 96 % 0.0 mm
10:07 9.7 °C 9.0 °C 1020.9 hPa WNW 9.3 km/h 12.6 km/h 96 % 0.0 mm
10:12 9.7 °C 9.0 °C 1020.9 hPa NNW 8.7 km/h 15.4 km/h 95 % 0.0 mm
10:17 9.9 °C 10.0 °C 1020.9 hPa NNW 5.8 km/h 15.4 km/h 96 % 0.0 mm
10:22 9.9 °C 10.0 °C 1020.9 hPa NNW 8.7 km/h 12.6 km/h 96 % 0.0 mm
10:27 10.0 °C 9.0 °C 1020.9 hPa NW 15.8 km/h 16.3 km/h 95 % 0.0 mm
10:33 10.1 °C 9.0 °C 1020.9 hPa North 6.9 km/h 16.3 km/h 95 % 0.0 mm
10:38 10.3 °C 9.0 °C 1020.9 hPa WNW 11.9 km/h 15.8 km/h 94 % 0.0 mm
10:43 10.3 °C 9.0 °C 1020.9 hPa North 9.3 km/h 11.9 km/h 94 % 0.0 mm
10:48 10.4 °C 9.0 °C 1020.9 hPa North 10.5 km/h 11.9 km/h 94 % 0.0 mm
10:53 10.3 °C 9.0 °C 1020.9 hPa WNW 5.8 km/h 14.0 km/h 93 % 0.0 mm
10:58 10.2 °C 9.0 °C 1020.9 hPa Calm   14.0 km/h 93 % 0.0 mm
11:03 10.2 °C 9.0 °C 1020.9 hPa West 3.2 km/h 12.6 km/h 94 % 0.0 mm
11:08 10.1 °C 9.0 °C 1020.9 hPa North 4.3 km/h 13.0 km/h 94 % 0.0 mm
11:13 10.1 °C 9.0 °C 1020.9 hPa WNW 9.3 km/h 13.0 km/h 95 % 0.0 mm
11:18 10.2 °C 10.0 °C 1020.9 hPa West 6.1 km/h 12.6 km/h 95 % 0.0 mm
11:23 10.2 °C 10.0 °C 1020.9 hPa NNW 14.0 km/h 14.0 km/h 96 % 0.0 mm
11:28 10.2 °C 10.0 °C 1020.9 hPa NW 6.9 km/h 14.0 km/h 96 % 0.0 mm
11:33 10.1 °C 10.0 °C 1020.9 hPa SW 7.9 km/h 14.0 km/h 96 % 0.0 mm
11:38 10.1 °C 10.0 °C 1020.9 hPa West 9.3 km/h 13.0 km/h 96 % 0.0 mm
11:43 10.1 °C 10.0 °C 1020.9 hPa NNW 5.5 km/h 13.0 km/h 97 % 0.0 mm
11:48 10.2 °C 10.0 °C 1020.9 hPa WNW 6.4 km/h 13.0 km/h 97 % 0.0 mm
11:53 10.4 °C 10.0 °C 1020.9 hPa North 7.9 km/h 9.3 km/h 97 % 0.0 mm
11:58 10.4 °C 10.0 °C 1020.9 hPa WNW 7.9 km/h 10.5 km/h 97 % 0.0 mm
12:03 10.4 °C 10.0 °C 1020.9 hPa NNW 1.8 km/h 13.0 km/h 97 % 0.0 mm
12:08 10.3 °C 10.0 °C 1020.9 hPa North 4.0 km/h 13.0 km/h 97 % 0.0 mm
12:13 10.4 °C 10.0 °C 1020.9 hPa NNE 10.1 km/h 13.0 km/h 97 % 0.0 mm
12:18 10.5 °C 10.0 °C 1020.9 hPa NNE 6.9 km/h 13.0 km/h 97 % 0.0 mm
12:23 10.6 °C 10.0 °C 1021.9 hPa NW 4.7 km/h 15.1 km/h 97 % 0.0 mm
12:28 10.6 °C 10.0 °C 1021.9 hPa North 12.6 km/h 15.1 km/h 97 % 0.0 mm
12:34 10.6 °C 10.0 °C 1021.9 hPa NNE 14.0 km/h 14.0 km/h 97 % 0.0 mm
12:39 10.5 °C 10.0 °C 1020.9 hPa North 13.0 km/h 14.3 km/h 97 % 0.0 mm
12:44 10.5 °C 10.0 °C 1020.9 hPa NNW 13.0 km/h 16.6 km/h 97 % 0.3 mm
12:49 10.6 °C 10.0 °C 1020.9 hPa NW 6.9 km/h 17.7 km/h 97 % 0.3 mm
12:54 10.8 °C 11.0 °C 1020.9 hPa North 6.4 km/h 17.7 km/h 98 % 0.3 mm
12:59 10.9 °C 11.0 °C 1020.9 hPa NNW 9.3 km/h 13.0 km/h 98 % 0.3 mm
13:04 10.7 °C 11.0 °C 1020.9 hPa NW 6.9 km/h 13.0 km/h 98 % 0.3 mm
13:09 10.6 °C 10.0 °C 1020.9 hPa NW 19.8 km/h 23.0 km/h 97 % 0.3 mm
13:14 10.6 °C 10.0 °C 1020.9 hPa NNE 5.5 km/h 23.0 km/h 97 % 0.3 mm
13:19 10.6 °C 11.0 °C 1020.9 hPa North 8.7 km/h 19.8 km/h 98 % 0.3 mm
13:24 10.7 °C 11.0 °C 1019.9 hPa NNE 16.6 km/h 19.5 km/h 98 % 0.3 mm
13:29 10.7 °C 11.0 °C 1019.9 hPa North 6.9 km/h 21.2 km/h 98 % 0.3 mm
13:34 10.7 °C 11.0 °C 1019.9 hPa North 12.6 km/h 21.2 km/h 98 % 0.3 mm
13:39 10.7 °C 11.0 °C 1020.9 hPa North 12.6 km/h 21.2 km/h 98 % 0.3 mm
13:44 10.7 °C 11.0 °C 1020.9 hPa NNW 8.7 km/h 21.2 km/h 98 % 0.0 mm
13:49 10.8 °C 10.0 °C 1020.9 hPa NE 7.6 km/h 21.2 km/h 97 % 0.0 mm
13:54 10.8 °C 11.0 °C 1020.9 hPa North 14.0 km/h 21.2 km/h 98 % 0.0 mm
13:59 10.8 °C 11.0 °C 1020.9 hPa North 7.9 km/h 15.8 km/h 98 % 0.0 mm
14:04 10.8 °C 11.0 °C 1020.9 hPa NNE 10.5 km/h 17.7 km/h 98 % 0.0 mm
14:09 10.9 °C 11.0 °C 1020.9 hPa North 4.3 km/h 17.7 km/h 98 % 0.0 mm
14:14 11.2 °C 11.0 °C 1020.9 hPa North 16.3 km/h 17.2 km/h 98 % 0.0 mm
14:19 11.3 °C 11.0 °C 1020.9 hPa NNE 11.6 km/h 16.9 km/h 98 % 0.0 mm
14:24 11.1 °C 11.0 °C 1020.9 hPa North 9.3 km/h 17.2 km/h 98 % 0.0 mm
14:29 11.2 °C 11.0 °C 1020.9 hPa NNW 13.7 km/h 17.7 km/h 97 % 0.0 mm
14:34 11.3 °C 11.0 °C 1020.9 hPa North 11.9 km/h 17.7 km/h 97 % 0.0 mm
14:39 11.2 °C 11.0 °C 1020.9 hPa North 15.8 km/h 19.5 km/h 97 % 0.0 mm
14:45 11.2 °C 11.0 °C 1020.9 hPa NNW 9.3 km/h 20.6 km/h 97 % 0.0 mm
14:49 11.3 °C 11.0 °C 1020.9 hPa NNW 15.4 km/h 20.6 km/h 97 % 0.0 mm
14:55 11.3 °C 11.0 °C 1020.9 hPa NNW 12.2 km/h 19.5 km/h 98 % 0.0 mm
14:59 11.4 °C 11.0 °C 1020.9 hPa NNW 12.6 km/h 19.5 km/h 98 % 0.0 mm
15:04 11.2 °C 11.0 °C 1020.9 hPa NNW 6.9 km/h 20.1 km/h 97 % 0.0 mm
15:10 11.2 °C 11.0 °C 1020.9 hPa NNW 15.8 km/h 20.1 km/h 97 % 0.0 mm
15:15 11.3 °C 11.0 °C 1020.9 hPa NNW 10.1 km/h 20.1 km/h 98 % 0.0 mm
15:20 11.4 °C 11.0 °C 1020.9 hPa North 7.9 km/h 16.6 km/h 98 % 0.0 mm
15:25 11.5 °C 12.0 °C 1020.9 hPa North 13.7 km/h 20.1 km/h 98 % 0.0 mm
15:30 11.4 °C 11.0 °C 1020.9 hPa NNE 5.8 km/h 20.1 km/h 98 % 0.0 mm
15:35 11.4 °C 11.0 °C 1020.9 hPa North 13.0 km/h 15.4 km/h 98 % 0.0 mm
15:40 11.8 °C 12.0 °C 1020.9 hPa North 13.0 km/h 27.0 km/h 98 % 0.0 mm
15:45 11.8 °C 12.0 °C 1020.9 hPa NE 13.7 km/h 27.0 km/h 98 % 0.0 mm
15:50 11.7 °C 11.0 °C 1020.9 hPa NE 20.6 km/h 24.8 km/h 97 % 0.0 mm
15:55 11.6 °C 11.0 °C 1020.9 hPa NNE 13.7 km/h 24.8 km/h 96 % 0.0 mm
16:00 11.5 °C 11.0 °C 1020.9 hPa NNE 19.5 km/h 23.0 km/h 96 % 0.0 mm
16:05 11.5 °C 11.0 °C 1020.9 hPa North 12.2 km/h 23.0 km/h 96 % 0.0 mm
16:10 11.4 °C 11.0 °C 1020.9 hPa North 16.3 km/h 20.9 km/h 96 % 0.0 mm
16:15 11.3 °C 11.0 °C 1020.9 hPa North 14.0 km/h 21.2 km/h 96 % 0.0 mm
16:20 11.2 °C 11.0 °C 1020.9 hPa North 6.9 km/h 21.2 km/h 96 % 0.0 mm
16:25 11.2 °C 11.0 °C 1020.9 hPa NNW 13.7 km/h 17.2 km/h 97 % 0.0 mm
16:30 11.4 °C 11.0 °C 1020.9 hPa North 16.3 km/h 21.2 km/h 97 % 0.0 mm
16:35 11.5 °C 11.0 °C 1020.9 hPa North 20.6 km/h 23.0 km/h 97 % 0.0 mm
16:40 11.6 °C 11.0 °C 1019.9 hPa North 10.1 km/h 23.0 km/h 97 % 0.0 mm
16:45 11.5 °C 11.0 °C 1019.9 hPa NNE 14.8 km/h 20.6 km/h 96 % 0.0 mm
16:50 11.7 °C 11.0 °C 1019.9 hPa North 17.7 km/h 21.2 km/h 96 % 0.3 mm
16:56 12.2 °C 12.0 °C 1020.9 hPa North 9.7 km/h 27.0 km/h 95 % 0.3 mm
17:01 13.0 °C 12.0 °C 1020.9 hPa North 16.6 km/h 27.0 km/h 94 % 0.3 mm
17:06 13.8 °C 13.0 °C 1020.9 hPa NNW 20.9 km/h 20.9 km/h 94 % 0.3 mm
17:11 13.6 °C 13.0 °C 1020.9 hPa NNW 17.2 km/h 20.9 km/h 92 % 0.3 mm
17:16 13.0 °C 12.0 °C 1020.9 hPa NNE 16.9 km/h 23.8 km/h 89 % 0.3 mm
17:21 12.6 °C 11.0 °C 1020.9 hPa NNE 16.9 km/h 23.8 km/h 88 % 0.3 mm
17:26 12.3 °C 11.0 °C 1020.9 hPa NNE 16.6 km/h 23.3 km/h 88 % 0.3 mm
17:31 12.2 °C 10.0 °C 1020.9 hPa North 14.0 km/h 23.3 km/h 88 % 0.3 mm
17:36 12.2 °C 10.0 °C 1020.9 hPa North 15.4 km/h 22.7 km/h 88 % 0.3 mm
17:41 12.1 °C 10.0 °C 1020.9 hPa NNE 14.8 km/h 23.3 km/h 88 % 0.3 mm
17:46 12.3 °C 11.0 °C 1020.9 hPa NNW 27.7 km/h 28.0 km/h 87 % 0.3 mm
17:51 12.6 °C 11.0 °C 1020.9 hPa NNE 19.1 km/h 28.0 km/h 87 % 0.0 mm
17:56 12.7 °C 11.0 °C 1020.9 hPa NNW 12.6 km/h 19.1 km/h 87 % 0.0 mm
18:01 13.3 °C 11.0 °C 1020.9 hPa North 13.7 km/h 20.6 km/h 84 % 0.0 mm
18:06 13.5 °C 11.0 °C 1020.9 hPa NNE 12.6 km/h 29.1 km/h 82 % 0.0 mm
18:11 13.7 °C 11.0 °C 1020.9 hPa NNE 17.7 km/h 29.1 km/h 80 % 0.0 mm
18:16 13.0 °C 10.0 °C 1020.9 hPa North 19.8 km/h 26.7 km/h 80 % 0.0 mm
18:21 12.7 °C 10.0 °C 1020.9 hPa North 11.1 km/h 28.0 km/h 81 % 0.0 mm
18:26 12.6 °C 10.0 °C 1020.9 hPa North 15.4 km/h 28.0 km/h 82 % 0.0 mm
18:31 12.8 °C 10.0 °C 1020.9 hPa NNE 12.6 km/h 23.0 km/h 82 % 0.0 mm
18:36 13.0 °C 10.0 °C 1020.9 hPa NNW 15.8 km/h 23.3 km/h 81 % 0.0 mm
18:42 13.0 °C 10.0 °C 1020.9 hPa North 16.9 km/h 24.5 km/h 81 % 0.0 mm
18:47 12.9 °C 10.0 °C 1020.9 hPa North 15.8 km/h 24.5 km/h 81 % 0.0 mm
18:52 12.5 °C 10.0 °C 1020.9 hPa NNW 14.0 km/h 23.8 km/h 80 % 0.0 mm
18:57 12.4 °C 9.0 °C 1020.9 hPa NW 11.6 km/h 24.5 km/h 80 % 0.0 mm
19:02 12.3 °C 9.0 °C 1020.9 hPa NNE 8.7 km/h 24.5 km/h 81 % 0.0 mm
19:07 12.1 °C 9.0 °C 1021.9 hPa NNE 15.8 km/h 32.0 km/h 82 % 0.0 mm
19:12 12.0 °C 9.0 °C 1021.9 hPa NNE 20.9 km/h 32.0 km/h 82 % 0.0 mm
19:17 11.8 °C 9.0 °C 1021.9 hPa North 16.3 km/h 28.0 km/h 82 % 0.0 mm
19:22 11.8 °C 9.0 °C 1021.9 hPa NE 17.7 km/h 23.0 km/h 82 % 0.0 mm
19:27 12.0 °C 9.0 °C 1021.9 hPa NNE 23.0 km/h 23.0 km/h 82 % 0.0 mm
19:32 12.0 °C 9.0 °C 1021.9 hPa NNE 14.3 km/h 23.0 km/h 81 % 0.0 mm
19:37 12.3 °C 9.0 °C 1021.9 hPa NNE 12.2 km/h 23.3 km/h 80 % 0.0 mm
19:42 12.1 °C 9.0 °C 1021.9 hPa NE 15.4 km/h 23.8 km/h 78 % 0.0 mm
19:47 11.7 °C 8.0 °C 1021.9 hPa North 17.2 km/h 23.8 km/h 78 % 0.0 mm
19:52 11.6 °C 8.0 °C 1021.9 hPa NNE 10.1 km/h 17.7 km/h 78 % 0.0 mm
19:58 11.3 °C 8.0 °C 1021.9 hPa NNE 5.0 km/h 20.9 km/h 78 % 0.0 mm
20:03 11.4 °C 8.0 °C 1021.9 hPa North 14.0 km/h 27.7 km/h 79 % 0.0 mm
20:08 11.3 °C 8.0 °C 1021.9 hPa NNE 14.8 km/h 27.7 km/h 77 % 0.0 mm
20:13 11.2 °C 8.0 °C 1021.9 hPa ENE 14.0 km/h 19.5 km/h 78 % 0.0 mm
20:16 11.1 °C 8.0 °C 1021.9 hPa NNW 11.9 km/h 19.5 km/h 79 % 0.0 mm
20:21 10.9 °C 8.0 °C 1021.9 hPa North 15.4 km/h 19.5 km/h 79 % 0.0 mm
20:26 10.8 °C 7.0 °C 1021.9 hPa North 13.0 km/h 24.5 km/h 78 % 0.0 mm
20:31 10.7 °C 7.0 °C 1021.9 hPa North 17.2 km/h 25.6 km/h 78 % 0.0 mm
20:36 10.6 °C 7.0 °C 1021.9 hPa North 10.1 km/h 25.6 km/h 78 % 0.0 mm
20:41 10.5 °C 7.0 °C 1021.9 hPa North 13.0 km/h 17.7 km/h 78 % 0.0 mm
20:43 10.4 °C 7.0 °C 1021.9 hPa North 12.6 km/h 20.6 km/h 79 % 0.0 mm
20:48 10.4 °C 7.0 °C 1021.9 hPa North 12.6 km/h 21.9 km/h 79 % 0.0 mm
20:53 10.2 °C 7.0 °C 1021.9 hPa NNE 15.8 km/h 21.9 km/h 79 % 0.0 mm
20:58 10.1 °C 7.0 °C 1021.9 hPa East 9.3 km/h 21.2 km/h 79 % 0.0 mm
21:03 10.0 °C 7.0 °C 1021.9 hPa North 13.0 km/h 18.0 km/h 80 % 0.0 mm
21:08 9.9 °C 7.0 °C 1021.9 hPa NNE 11.6 km/h 21.2 km/h 80 % 0.0 mm
21:13 9.8 °C 7.0 °C 1021.9 hPa NNE 15.4 km/h 21.2 km/h 81 % 0.0 mm
21:18 9.7 °C 7.0 °C 1021.9 hPa North 16.9 km/h 17.7 km/h 81 % 0.0 mm
21:22 9.6 °C 7.0 °C 1022.9 hPa North 8.7 km/h 17.7 km/h 82 % 0.0 mm
21:27 9.4 °C 7.0 °C 1022.9 hPa North 13.7 km/h 16.9 km/h 82 % 0.0 mm
21:32 9.3 °C 7.0 °C 1022.9 hPa North 10.5 km/h 17.2 km/h 83 % 0.0 mm
21:37 9.3 °C 7.0 °C 1022.9 hPa NE 11.6 km/h 17.2 km/h 83 % 0.0 mm
21:42 9.2 °C 7.0 °C 1022.9 hPa North 13.0 km/h 16.6 km/h 84 % 0.0 mm
21:47 9.1 °C 7.0 °C 1022.9 hPa North 9.0 km/h 19.5 km/h 84 % 0.0 mm
21:52 9.0 °C 7.0 °C 1022.9 hPa NNE 10.1 km/h 19.5 km/h 84 % 0.0 mm
21:57 8.9 °C 7.0 °C 1022.9 hPa North 13.0 km/h 15.8 km/h 85 % 0.0 mm
22:02 8.8 °C 7.0 °C 1022.9 hPa NNE 9.3 km/h 16.9 km/h 86 % 0.0 mm
22:07 8.7 °C 7.0 °C 1022.9 hPa NNE 9.7 km/h 17.2 km/h 86 % 0.0 mm
22:12 8.7 °C 7.0 °C 1022.9 hPa NNE 5.8 km/h 17.2 km/h 86 % 0.0 mm
22:17 8.6 °C 7.0 °C 1022.9 hPa North 7.9 km/h 16.6 km/h 86 % 0.0 mm
22:23 8.5 °C 7.0 °C 1022.9 hPa NE 11.9 km/h 15.4 km/h 86 % 0.0 mm
22:28 8.5 °C 7.0 °C 1022.9 hPa North 8.7 km/h 15.4 km/h 86 % 0.0 mm
22:33 8.4 °C 6.0 °C 1022.9 hPa NNE 9.7 km/h 13.7 km/h 86 % 0.0 mm
22:38 8.4 °C 7.0 °C 1022.9 hPa North 9.3 km/h 14.0 km/h 87 % 0.0 mm
22:43 8.3 °C 7.0 °C 1022.9 hPa NNE 4.3 km/h 14.0 km/h 87 % 0.0 mm
22:48 8.2 °C 6.0 °C 1022.9 hPa WNW 5.5 km/h 13.7 km/h 87 % 0.0 mm
22:53 8.2 °C 6.0 °C 1022.9 hPa NE 8.7 km/h 14.0 km/h 87 % 0.0 mm
22:58 8.1 °C 6.0 °C 1022.9 hPa North 11.1 km/h 14.0 km/h 87 % 0.0 mm
23:03 8.0 °C 6.0 °C 1022.9 hPa NNW 6.4 km/h 12.6 km/h 88 % 0.0 mm
23:08 7.9 °C 6.0 °C 1022.9 hPa NNW 8.7 km/h 12.6 km/h 88 % 0.0 mm
23:13 7.8 °C 6.0 °C 1022.9 hPa North 8.7 km/h 14.3 km/h 88 % 0.0 mm
23:18 7.7 °C 6.0 °C 1022.9 hPa NNW 8.7 km/h 14.3 km/h 88 % 0.0 mm
23:23 7.7 °C 6.0 °C 1022.9 hPa NNW 5.5 km/h 11.9 km/h 88 % 0.0 mm
23:24 7.7 °C 6.0 °C 1022.9 hPa NNW 10.1 km/h 11.9 km/h 89 % 0.0 mm
23:29 7.6 °C 6.0 °C 1022.9 hPa NNE 5.8 km/h 10.5 km/h 89 % 0.0 mm
23:35 7.6 °C 6.0 °C 1022.9 hPa NNE 13.0 km/h 13.0 km/h 89 % 0.0 mm
23:40 7.5 °C 6.0 °C 1022.9 hPa North 10.1 km/h 13.0 km/h 89 % 0.0 mm
23:45 7.4 °C 6.0 °C 1022.9 hPa NNW 11.9 km/h 11.9 km/h 89 % 0.0 mm
23:50 7.4 °C 6.0 °C 1022.9 hPa North 11.6 km/h 11.9 km/h 89 % 0.0 mm
23:55 7.4 °C 6.0 °C 1022.9 hPa North 9.3 km/h 14.0 km/h 89 % 0.0 mm
Le Gheer Warneton
Courtoisie de Weather Underground - 2.25 mb

Mise a jour : 18/12/2017 23:10:11
Généré par Cumulus 1.9.4 (1099)